Weather History for KPPO - September, 2014

Change the Weather History Date:

Saturday, September 27, 2014

  Actual Average (KVPZ) Record (KVPZ)
Temperature  
Mean Temperature 65 °F 59 °F  
Max Temperature 80 °F 70 °F 85 °F (1999)
Min Temperature 50 °F 48 °F 42 °F (2010)
Degree Days  
Heating Degree Days 0 7  
Month to date heating degree days 90  
Since 1 July heating degree days 107  
Cooling Degree Days 0 1  
Month to date cooling degree days 62  
Year to date cooling degree days 698  
Growing Degree Days 15 (Base 50)    
Moisture  
Dew Point 57 °F    
Average Humidity 81    
Maximum Humidity 100    
Minimum Humidity 42    
Precipitation  
Precipitation 0.00 in 0.11 in 0.88 in (2011)
Month to date precipitation 2.87  
Year to date precipitation 28.41  
Sea Level Pressure  
Sea Level Pressure 30.23 in    
Wind  
Wind Speed 2 mph (East)    
Max Wind Speed 7 mph    
Max Gust Speed -    
Visibility 9 miles    
Events      
T = Trace of Precipitation, MM = Missing Value Source: NWS Daily Summary

Daily Weather History Graph

Daily Weather History Graph

Search for Another Location

Airport or City:

Trip Planner

Search our weather history database for the weather conditions in past years. The results will help you decide how hot, cold, wet, or windy it might be!

Date:

Astronomy

Sep. 27, 2014 Rise Set
Actual Time 6:39 AM CDT 6:35 PM CDT
Civil Twilight 6:11 AM CDT 7:03 PM CDT
Nautical Twilight 5:39 AM CDT 7:35 PM CDT
Astronomical Twilight 5:06 AM CDT 8:07 PM CDT
Moon 9:56 AM CDT (9/27) 8:32 PM CDT (9/27)
Length of Visible Light 12h 51m
Length of Day
11h 55m
Waxing Crescent, 11% of the Moon is Illuminated
Sep 27
Waxing Crescent
Oct 1
First Quarter
Oct 8
Full
Oct 15
Last Quarter
Oct 23
New

Hourly Weather History & Observations

Time (CDT) Temp. Heat Index Dew Point Humidity Pressure Visibility Wind Dir Wind Speed Gust Speed Precip Events Conditions
12:15 AM 57.7 °F - 55.6 °F 92% 30.25 in 10.0 mi Calm Calm - N/A   Clear
12:35 AM 57.0 °F - 54.0 °F 89% 30.25 in 10.0 mi East 4.6 mph - N/A   Scattered Clouds
12:55 AM 56.5 °F - 54.0 °F 91% 30.26 in 10.0 mi East 3.5 mph - N/A   Scattered Clouds
1:15 AM 56.5 °F - 54.3 °F 92% 30.26 in 10.0 mi East 3.5 mph - N/A   Clear
1:35 AM 55.4 °F - 54.3 °F 96% 30.26 in 10.0 mi East 3.5 mph - N/A   Scattered Clouds
1:55 AM 55.8 °F - 54.5 °F 96% 30.26 in 10.0 mi Calm Calm - N/A   Scattered Clouds
2:15 AM 56.3 °F - 55.4 °F 97% 30.26 in 10.0 mi Calm Calm - N/A   Scattered Clouds
2:35 AM 55.6 °F - 55.2 °F 99% 30.26 in 10.0 mi Calm Calm - N/A   Clear
2:55 AM 54.5 °F - 54.1 °F 99% 30.26 in 10.0 mi Calm Calm - N/A   Clear
3:15 AM 54.9 °F - 54.9 °F 100% 30.26 in 10.0 mi Calm Calm - N/A   Clear
3:35 AM 54.5 °F - 54.5 °F 100% 30.27 in 10.0 mi Calm Calm - N/A   Scattered Clouds
3:55 AM 53.4 °F - 53.4 °F 100% 30.26 in 7.0 mi Calm Calm - N/A   Clear
4:15 AM 54.0 °F - 54.0 °F 100% 30.27 in 7.0 mi Calm Calm - N/A   Scattered Clouds
4:35 AM 52.7 °F - 52.7 °F 100% 30.27 in 5.0 mi Calm Calm - N/A   Clear
4:55 AM 52.2 °F - 52.2 °F 100% 30.27 in 7.0 mi Calm Calm - N/A   Clear
5:15 AM 51.8 °F - 51.8 °F 100% 30.26 in 7.0 mi Calm Calm - N/A   Clear
5:55 AM 51.8 °F - 51.8 °F 100% 30.26 in 5.0 mi Calm Calm - N/A   Clear
6:15 AM 51.8 °F - 51.8 °F 100% 30.26 in 5.0 mi Calm Calm - N/A   Clear
6:35 AM 50.7 °F - 50.7 °F 100% 30.27 in 4.0 mi Calm Calm - N/A   Clear
6:55 AM 53.2 °F - 53.2 °F 100% 30.28 in 3.0 mi East 3.5 mph - N/A   Clear
7:15 AM 54.0 °F - 54.0 °F 100% 30.28 in 3.0 mi Calm Calm - N/A   Clear
7:35 AM 55.8 °F - 55.8 °F 100% 30.28 in 4.0 mi Calm Calm - N/A   Clear
7:55 AM 55.9 °F - 55.9 °F 100% 30.29 in 4.0 mi Calm Calm - N/A   Clear
8:15 AM 58.1 °F - 58.1 °F 100% 30.29 in 4.0 mi East 3.5 mph - N/A   Clear
8:35 AM 59.9 °F - 59.9 °F 100% 30.28 in 5.0 mi East 4.6 mph - N/A   Clear
8:50 AM 61.2 °F - 59.7 °F 95% 30.28 in 5.0 mi East 4.6 mph - N/A   Clear
9:15 AM 62.6 °F - 59.7 °F 90% 30.29 in 7.0 mi East 3.5 mph - N/A   Clear
9:35 AM 64.4 °F - 59.9 °F 85% 30.29 in 7.0 mi ESE 3.5 mph - N/A   Clear
9:55 AM 65.5 °F - 60.1 °F 83% 30.29 in 10.0 mi SE 3.5 mph - N/A   Clear
10:15 AM 67.6 °F - 60.6 °F 78% 30.28 in 10.0 mi SSE 3.5 mph - N/A   Clear
10:35 AM 69.4 °F - 60.1 °F 72% 30.28 in 10.0 mi SSE 3.5 mph - N/A   Clear
10:55 AM 71.2 °F - 60.6 °F 69% 30.28 in 10.0 mi Calm Calm - N/A   Clear
11:15 AM 72.1 °F - 60.3 °F 66% 30.28 in 10.0 mi SE 4.6 mph - N/A   Clear
11:35 AM 73.4 °F - 60.8 °F 65% 30.28 in 10.0 mi East 4.6 mph - N/A   Clear
11:55 AM 74.7 °F - 61.2 °F 63% 30.27 in 10.0 mi ESE 3.5 mph - N/A   Clear
12:15 PM 76.6 °F - 59.2 °F 55% 30.26 in 10.0 mi Calm Calm - N/A   Clear
12:35 PM 76.6 °F - 58.1 °F 53% 30.26 in 10.0 mi SE 4.6 mph - N/A   Clear
12:55 PM 77.7 °F - 57.7 °F 50% 30.25 in 10.0 mi Calm Calm - N/A   Clear
1:10 PM 78.6 °F - 55.9 °F 46% 30.24 in 10.0 mi East 4.6 mph - N/A   Clear
1:35 PM 79.0 °F - 57.4 °F 47% 30.24 in 10.0 mi ESE 5.8 mph - N/A   Clear
1:55 PM 78.6 °F - 57.0 °F 47% 30.23 in 10.0 mi Calm Calm - N/A   Clear
2:15 PM 79.7 °F - 54.5 °F 42% 30.22 in 10.0 mi ESE 5.8 mph - N/A   Clear
2:35 PM 79.9 °F - 55.4 °F 43% 30.21 in 10.0 mi East 6.9 mph - N/A   Clear
2:55 PM 79.2 °F - 56.1 °F 45% 30.20 in 10.0 mi East 6.9 mph - N/A   Clear
3:15 PM 78.1 °F - 54.3 °F 44% 30.20 in 10.0 mi East 4.6 mph - N/A   Clear
3:35 PM 77.2 °F - 56.5 °F 49% 30.20 in 10.0 mi ESE 4.6 mph - N/A   Clear
3:55 PM 77.5 °F - 57.6 °F 50% 30.19 in 10.0 mi East 3.5 mph - N/A   Clear
4:15 PM 78.4 °F - 57.9 °F 49% 30.19 in 10.0 mi East 3.5 mph - N/A   Clear
4:35 PM 80.1 °F 80.6 °F 57.9 °F 47% 30.18 in 10.0 mi East 6.9 mph - N/A   Clear
4:50 PM 78.8 °F - 54.9 °F 44% 30.18 in 10.0 mi East 5.8 mph - N/A   Clear
5:15 PM 77.2 °F - 57.2 °F 50% 30.18 in 10.0 mi East 4.6 mph - N/A   Clear
5:35 PM 76.5 °F - 57.9 °F 53% 30.18 in 10.0 mi East 5.8 mph - N/A   Clear
5:55 PM 73.8 °F - 59.0 °F 60% 30.18 in 10.0 mi East 4.6 mph - N/A   Clear
6:15 PM 72.9 °F - 59.9 °F 64% 30.18 in 10.0 mi North 4.6 mph - N/A   Clear
6:35 PM 68.7 °F - 63.3 °F 83% 30.18 in 10.0 mi Calm Calm - N/A   Clear
6:55 PM 69.1 °F - 60.6 °F 74% 30.18 in 10.0 mi Calm Calm - N/A   Clear
7:15 PM 66.6 °F - 61.7 °F 84% 30.18 in 10.0 mi Calm Calm - N/A   Clear
7:35 PM 64.4 °F - 60.8 °F 88% 30.19 in 10.0 mi North 3.5 mph - N/A   Clear
7:55 PM 63.3 °F - 60.1 °F 89% 30.19 in 10.0 mi Calm Calm - N/A   Clear
8:15 PM 63.7 °F - 61.0 °F 91% 30.19 in 10.0 mi Calm Calm - N/A   Clear
8:35 PM 62.1 °F - 60.1 °F 93% 30.19 in 10.0 mi Calm Calm - N/A   Clear
8:55 PM 61.9 °F - 60.3 °F 94% 30.19 in 10.0 mi Calm Calm - N/A   Clear
9:15 PM 61.9 °F - 60.1 °F 94% 30.19 in 10.0 mi Calm Calm - N/A   Clear
9:35 PM 61.0 °F - 59.9 °F 96% 30.19 in 10.0 mi Calm Calm - N/A   Clear
9:55 PM 61.0 °F - 60.4 °F 98% 30.19 in 10.0 mi Calm Calm - N/A   Clear
10:15 PM 60.4 °F - 60.3 °F 99% 30.19 in 10.0 mi Calm Calm - N/A   Clear
10:35 PM 60.8 °F - 60.8 °F 100% 30.19 in 10.0 mi Calm Calm - N/A   Clear
10:55 PM 59.9 °F - 59.9 °F 100% 30.19 in 7.0 mi Calm Calm - N/A   Clear
11:15 PM 59.9 °F - 59.9 °F 100% 30.19 in 7.0 mi Calm Calm - N/A   Clear
11:35 PM 59.5 °F - 59.5 °F 100% 30.19 in 10.0 mi Calm Calm - N/A   Clear
11:50 PM 59.4 °F - 59.4 °F 100% 30.19 in 7.0 mi Calm Calm - N/A   Clear